Find Starlink 2147

NORAD ID: 47736 Int'l Des: 2021-017 Owner: SPXS Country: US Constellation: starlink operational
LEOCIRCULARSTARLINK_TYPE

現在のビュー

3D地球を読み込み中...

About Starlink 2147

Starlink 2147 (NORAD 47736) is a starlink constellation satellite (v1.0) launched Mar 4, 2021 by SPXS of US. It operates in LEO, CIRCULAR, STARLINK_TYPE orbit with a mass of 260.00 kg.

次回通過

Passes for default location (London). Set your location on the main map for personalized predictions.

高度履歴

Loading altitude history...

軌道要素

1 47736U 21017Q 26263.84304279 .00076311 00000-0 48205-3 0 9994
2 47736 53.0692 346.3988 0005500 351.1351 8.9570 15.75942556308171
Epoch: Sep 20, 2026 • Age: 12 hours

現在のステータス

高度 340.6 km
遠地点 / 近地点 N/A
速度 7.71 km/s
衛星直下点 28.95°N, 120.46°W
打ち上げ日 Mar 4, 2021
運用期間 5.5 years
タイプ internet

技術仕様

分類 Payload
質量 260.00 kg
乾燥質量 248.00 kg
長さ 0.20 m
スパン 9.00 m
形状 ? Box + pan
製造者 SPXS
バスタイプ Starlink
フェーズステータス In Orbit
所有者/国 SPXS/US

Most Searched